Location: City of Moscow
(46.7306°N, 116.9989°W)
Time: 12:42:32
(UTC+00:00)

ACS3 Solar Sail - Pass Details

Date: 26 February 2026
Orbit: 887 x 973 km, 97.2° (Epoch: 8 March)

Event Time Altitude Azimuth Distance (km) Brightness Sun altitude
Rises 10:14:54 0° 8° (N) 3,506 5.3 -42.4°
Reaches altitude 10° 10:17:20 10° 5° (N) 2,562 4.4 -42.1°
Enters shadow 10:18:02 14° 4° (N) 2,294 4.1 -42.0°
